Regional Weather Roundup
Issued by NWS Raleigh/Durham, NC

Home | Current Version | Previous Version | Text Only | Print | Product List | Glossary On
Versions: 1 2 3 4 5 6 7 8 9 10 11 12 13 14 15 16 17 18 19 20 21 22 23 24 25 26 27 28 29 30 31 32 33 34 35 36 37 38 39 40 41 42 43 44 45 46 47 48 49 50
000
ASUS42 KRAH 300910
RWRRAH
NORTH CAROLINA WEATHER ROUNDUP
NATIONAL WEATHER SERVICE RALEIGH NC
500 AM EDT TUE AUG 30 2016

NOTE: "FAIR" INDICATES FEW OR NO CLOUDS BELOW 12,000 FEET WITH NO
SIGNIFICANT WEATHER AND/OR OBSTRUCTIONS TO VISIBILITY.

NCZ001-053-055-056-065-067-301000-
WESTERN NORTH CAROLINA

CITY           SKY/WX    TMP DP  RH WIND       PRES   REMARKS
ASHEVILLE      CLEAR     63  60  90 CALM      30.20S
JEFFERSON      FOG       63  63  99 CALM      30.25F VSB 1/4
MORGANTON      CLEAR     67  67 100 CALM      30.19S
HICKORY        CLEAR     69  68  96 CALM      30.13F
RUTHERFORDTON    N/A     67  67 100 NW3       30.14S
MOUNT AIRY     CLEAR     68  66  93 CALM      30.16F
BOONE          PTCLDY    60  60 100 CALM      30.26S
$$

NCZ021-022-025-041-071-084-088-301000-
CENTRAL NORTH CAROLINA

CITY           SKY/WX    TMP DP  RH WIND       PRES   REMARKS
CHARLOTTE      CLEAR     70  64  81 N6        30.10F
GREENSBORO     CLEAR     69  66  90 CALM      30.12S
WINSTON-SALEM  CLEAR     71  64  78 N3        30.13F
RALEIGH-DURHAM PTCLDY    70  65  84 CALM      30.09S
FORT BRAGG     CLEAR     72  71  94 N3        30.05F
FAYETTEVILLE   PTCLDY    74  71  91 N5        30.05F
BURLINGTON     CLEAR     67  66  97 CALM      30.10F
LAURINBURG     CLEAR     72  69  90 CALM      30.06F
$$

NCZ011-015-027-028-043-044-047-080-103-301000-
NORTHEASTERN NORTH CAROLINA

CITY           SKY/WX    TMP DP  RH WIND       PRES   REMARKS
ROCKY MT-WILSO CLEAR     68  68 100 CALM      30.07S
GREENVILLE     CLEAR     66  66 100 CALM      30.06S
WASHINGTON     CLEAR     67  66  97 CALM      30.04F
ELIZABETH CITY   N/A     71  69  93 N5        30.04S
MANTEO         MOCLDY    78  76  92 NE9       30.02S
CAPE HATTERAS  PTCLDY    79  76  90 NE10G18   30.00R
$$

NCZ078-087-090-091-093-098-101-301000-
SOUTHEASTERN NORTH CAROLINA

CITY           SKY/WX    TMP DP  RH WIND       PRES   REMARKS
LUMBERTON      CLEAR     73  71  93 CALM      30.04S
GOLDSBORO      CLEAR     70  70 100 N3        30.03F
KINSTON        CLEAR     68  67  97 CALM      30.04F
KENANSVILLE    PTCLDY    70  68  94 N3        30.04F
NEW BERN       CLEAR     72  69  90 N6        30.02F
CHERRY POINT   CLEAR     75  71  87 N7        30.02S
BEAUFORT       MOCLDY    74  71  91 N8        30.00S
JACKSONVILLE   PTCLDY    72  69  90 N8        30.01F
WILMINGTON     CLEAR     72  70  93 N5        30.02S
$$




USA.gov is the U.S. government's official web portal to all federal, state and local government web resources and services.